Location: Arbon
(43.0005°N, 0.7472°E)
Time: 08:38:22
(UTC+00:00)

Cosmos 407 Rocket - Pass Details

Date: 22 April 2026
Orbit: 740 x 781 km, 74.0° (Epoch: 15 May)

Event Time Altitude Azimuth Distance (km) Brightness Sun altitude
Rises 21:21:44 0° 345° (NNW) 3,196 7.7 -24.4°
Reaches altitude 10° 21:24:13 10° 352° (N) 2,264 6.7 -24.7°
Enters shadow 21:28:59 43° 60° (ENE) 1,033 4.0 -25.2°
